Location: Newark
(42.8481°N, 0.4872°E)
Time: 08:55:45
(UTC+00:00)

SR - Pass Details

Date: 01 November 2020
Orbit: 579 x 876 km, 66.7° (Epoch: 29 November)

Event Time Altitude Azimuth Distance (km) Brightness Sun altitude
Rises 11:12:05 0° 315° (NW) 3,129 ? 32.1°
Reaches altitude 10° 11:14:48 10° 301° (WNW) 2,259 ? 32.2°
Maximum altitude 11:18:46 22° 251° (WSW) 1,632 ? 32.3°
Drops below altitude 10° 11:22:56 10° 201° (SSW) 2,393 ? 32.3°
Sets 11:25:55 0° 187° (S) 3,365 ? 32.4°
